San Juan, PR

6:53 PM AST on September 20, 2017 (GMT -0400)
Luis Munoz Marin International

Weather History for TJSJ - June, 2013

Change the Weather History Date:

Saturday, June 15, 2013

  Actual Average Record
Temperature  
Mean Temperature 86 °F 83 °F  
Max Temperature 92 °F 89 °F 94 °F (1983)
Min Temperature 79 °F 78 °F 70 °F (1956)
Degree Days  
Heating Degree Days 0 0  
Month to date heating degree days 0 0  
Since 1 June heating degree days 0 0  
Since 1 July heating degree days 0 0  
Cooling Degree Days 21 18  
Month to date cooling degree days 261 270  
Year to date cooling degree days 2508 2435  
Since 1 June cooling degree days 261 270  
Growing Degree Days 35 (Base 50)    
Moisture  
Dew Point 76 °F    
Average Humidity 74    
Maximum Humidity 91    
Minimum Humidity 56    
Precipitation  
Precipitation 0.27 in 0.15 in 3.55 in (1965)
Month to date precipitation 5.57 2.35  
Year to date precipitation 30.10 21.03  
Sea Level Pressure  
Sea Level Pressure 30.02 in    
Wind  
Wind Speed 8 mph (ESE)    
Max Wind Speed 18 mph    
Max Gust Speed 24 mph    
Visibility 9 miles    
Events Rain    
T = Trace of Precipitation, MM = Missing Value Source: NWS Daily Summary

Daily Weather History Graph

Daily Weather History Graph

Search for Another Location

Airport or City:

Trip Planner

Search our weather history database for the weather conditions in past years. The results will help you decide how hot, cold, wet, or windy it might be!

Date:

Astronomy

Jun. 15, 2013 Rise Set
Actual Time 5:47 AM AST 7:01 PM AST
Civil Twilight 5:23 AM AST 7:25 PM AST
Nautical Twilight 4:54 AM AST 7:54 PM AST
Astronomical Twilight 4:24 AM AST 8:24 PM AST
Moon 11:30 AM AST (6/15) 11:57 PM AST (6/15)
Length of Visible Light 14h 02m
Length of Day
13h 14m
Waxing Crescent, 39% of the Moon is Illuminated
Jun 15
Waxing Crescent
Jun 16
First Quarter
Jun 23
Full
Jun 30
Last Quarter
Jul 8
New

Hourly Weather History & Observations

Time (AST) Temp. Heat Index Dew Point Humidity Pressure Visibility Wind Dir Wind Speed Gust Speed Precip Events Conditions
12:56 AM 80.1 °F 85.4 °F 75.9 °F 87% 30.01 in 5.0 mi East 6.9 mph - 0.07 in Rain Light Rain
1:56 AM 80.1 °F 85.8 °F 77.0 °F 90% 30.00 in 9.0 mi ESE 4.6 mph - 0.20 in   Overcast
2:56 AM 80.1 °F 85.4 °F 75.9 °F 87% 29.98 in 9.0 mi East 8.1 mph - 0.00 in   Overcast
3:56 AM 79.0 °F - 75.0 °F 88% 29.99 in 9.0 mi ESE 3.5 mph - N/A   Overcast
4:56 AM 79.0 °F - 75.0 °F 88% 29.99 in 9.0 mi East 5.8 mph - N/A   Scattered Clouds
5:56 AM 80.1 °F 85.1 °F 75.0 °F 85% 30.00 in 7.0 mi East 5.8 mph - N/A   Mostly Cloudy
6:03 AM 80.6 °F 86.2 °F 75.2 °F 84% 30.01 in 9.0 mi East 4.6 mph - N/A   Overcast
6:56 AM 81.0 °F 87.3 °F 75.9 °F 85% 30.02 in 9.0 mi SE 3.5 mph - 0.00 in Rain Light Rain
7:56 AM 82.0 °F 90.2 °F 77.0 °F 85% 30.03 in 8.0 mi ESE 4.6 mph - 0.00 in   Mostly Cloudy
8:56 AM 81.0 °F 87.9 °F 77.0 °F 88% 30.03 in 9.0 mi East 5.8 mph - 0.00 in   Mostly Cloudy
9:56 AM 82.9 °F 91.8 °F 77.0 °F 82% 30.04 in 8.0 mi East 8.1 mph - N/A   Mostly Cloudy
10:56 AM 88.0 °F 100.2 °F 77.0 °F 70% 30.03 in 9.0 mi East 10.4 mph - N/A   Mostly Cloudy
11:56 AM 86.0 °F 96.0 °F 75.9 °F 72% 30.03 in 9.0 mi East 13.8 mph - N/A   Mostly Cloudy
12:56 PM 87.1 °F 98.8 °F 77.0 °F 72% 30.01 in 10.0 mi East 9.2 mph - 0.00 in   Mostly Cloudy
1:56 PM 90.0 °F 97.9 °F 73.0 °F 57% 29.99 in 9.0 mi ESE 12.7 mph - N/A   Overcast
2:56 PM 91.0 °F 99.3 °F 73.0 °F 55% 29.98 in 9.0 mi SSE 10.4 mph 16.1 mph N/A   Scattered Clouds
3:56 PM 88.0 °F 100.2 °F 77.0 °F 70% 29.98 in 9.0 mi East 15.0 mph - N/A   Mostly Cloudy
4:56 PM 86.0 °F 96.0 °F 75.9 °F 72% 29.98 in 9.0 mi East 9.2 mph - N/A   Scattered Clouds
5:56 PM 84.9 °F 94.1 °F 75.9 °F 74% 29.99 in 9.0 mi East 11.5 mph - N/A   Scattered Clouds
6:56 PM 84.0 °F 92.6 °F 75.9 °F 76% 30.01 in 9.0 mi ESE 8.1 mph - N/A   Scattered Clouds
7:56 PM 82.9 °F 90.8 °F 75.9 °F 79% 30.03 in 9.0 mi East 8.1 mph - N/A   Scattered Clouds
8:56 PM 82.0 °F 89.4 °F 75.9 °F 82% 30.06 in 9.0 mi East 6.9 mph - N/A   Partly Cloudy
9:56 PM 81.0 °F 87.3 °F 75.9 °F 85% 30.07 in 9.0 mi East 6.9 mph - N/A   Partly Cloudy
10:56 PM 81.0 °F 87.3 °F 75.9 °F 85% 30.08 in 9.0 mi East 10.4 mph - N/A   Partly Cloudy
11:56 PM 80.1 °F 85.1 °F 75.0 °F 85% 30.08 in 9.0 mi East 6.9 mph - N/A   Partly Cloudy